Regional Weather Roundup
Issued by NWS Green Bay, WI

Home | Current Version | Previous Version | Graphics & Text | Print | Product List | Glossary Off
Versions: 1 2 3 4 5 6 7 8 9 10 11 12 13 14 15 16 17 18 19 20 21 22 23 24 25 26 27 28 29 30 31 32 33 34 35 36 37 38 39 40 41 42 43 44 45 46 47 48 49 50

214
ASUS43 KGRB 160711
RWRGRB

NORTH-CENTRAL AND NORTHEAST WISCONSIN REGIONAL WEATHER ROUNDUP
NATIONAL WEATHER SERVICE GREEN BAY WI
100 AM CST MON JAN 16 2017

WIZ005-009-010>012-018-019-160800-
NORTH CENTRAL WISCONSIN

CITY           SKY/WX    TMP DP  RH WIND       PRES   REMARKS
IRONWOOD       CLEAR     20  14  77 S5        30.15S
MANITOWISH WTR PTCLDY    13  10  85 S5        30.15S WCI   6
ARBOR VITAE    CLOUDY    13   9  83 CALM      30.16S
EAGLE RIVER    CLOUDY    14   8  76 CALM      30.15S
LAND O LAKES   CLOUDY     8   5  91 CALM      30.15S
RHINELANDER    PTCLDY    15  11  83 SW8       30.17S WCI   4
PHILLIPS       CLOUDY    12   9  87 S3        30.17S
ANTIGO         CLOUDY    -4  -6  89 CALM      30.19F
TOMAHAWK       CLOUDY     3   0  87 CALM      30.19S
MERRILL        CLOUDY    -4  -8  83 CALM        N/A
$$

WIZ013-073-160800-
NORTHEAST WISCONSIN

CITY           SKY/WX    TMP DP  RH WIND       PRES   REMARKS
IRON MOUNTAIN  PTCLDY    13   5  70 CALM      30.15F
MARINETTE      NOT AVBL
OCONTO         CLOUDY     6   3  88 CALM      30.25F
$$

WIZ017-030-035>037-045-160800-
CENTRAL WISCONSIN

CITY           SKY/WX    TMP DP  RH WIND       PRES   REMARKS
MEDFORD        CLOUDY    13   8  82 SW3       30.19S
WAUSAU         CLOUDY     2   0  91 CALM      30.21F
MOSINEE        CLOUDY    12  12 100 CALM      30.23R
MARSHFIELD     CLOUDY    16  11  80 SW6       30.20F WCI   7
WISC RAPIDS    CLOUDY     8   5  87 CALM      30.25F
STEVENS POINT  CLOUDY     1  -2  87 CALM      30.24F
WAUPACA        CLOUDY     9   5  84 CALM      30.26S
SHAWANO        CLOUDY    11   8  88 CALM      30.25F
CLINTONVILLE   CLOUDY     5   1  85 CALM      30.25F
WAUTOMA        CLOUDY     8   4  83 CALM      30.27S
$$

WIZ038-039-048-051-160800-
FOX VALLEY

CITY           SKY/WX    TMP DP  RH WIND       PRES   REMARKS
NWS GREEN BAY  CLOUDY    18  13  80 SW3       30.26S
APPLETON       CLOUDY    19  12  73 SW7       30.23F
OSHKOSH        CLOUDY    20  13  74 SW5       30.26S
FOND DU LAC    CLOUDY    11   5  77 CALM      30.26F
$$

WIZ022-050-052-160800-
EAST CENTRAL WISCONSIN

CITY           SKY/WX    TMP DP  RH WIND       PRES   REMARKS
EPHRAIM        FAIR      21  13  69 SW10G17   30.22S
WASHINGTON ISL FAIR      22  13  70 SW12      30.23S
STURGEON BAY   CLOUDY    19  12  74 SW7       30.25F WCI  10
MANITOWOC      CLOUDY    11   9  92 CALM      30.27F
SHEBOYGAN      CLOUDY    14   9  80 CALM      30.27F
$$

LMZ563-521-522-541>543-160800-
LAKESHORE

STATION/POSITION TIME  TEMP    WIND        PRES    VSBY  WAVE
                       AIR SEA DIR/SP/G                  HT/PER
                 (UTC) (F)     (DEG/KT/KT) (MB)    (MI)  (FT/S)
SHEBOYGAN LKSHOR 0700   24     220/  4/  5 1026.0F
KEWAUNEE LKSHORE 0648          310/  1/  2 1024.5F
NORTHPORT PIER   0703   25     240/  3/ 12 1023.7
SISTER BAY LKSHO 0635   24     230/  7/  9   N/A
MENOMINEE LKSHOR 0648          200/  7/ 11 1022.9F
$$




USA.gov is the U.S. government's official web portal to all federal, state and local government web resources and services.